Location: Unspecified
(48.2082°N, 0.0000°E)
Time: 08:26:20
(UTC+00:00)

Altair - Pass Details

Date: 21 June 2019
Orbit: 1501 x 1683 km, 47.2° (Epoch: 24 July)

Event Time Altitude Azimuth Distance (km) Brightness Sun altitude
Rises 20:54:00 0° 242° (WSW) 4,717 10.3 -6.9°
Reaches altitude 10° 20:57:02 10° 240° (WSW) 3,757 9.7 -7.3°
Maximum altitude 21:06:31 71° 159° (SSE) 1,690 7.6 -8.3°
Drops below altitude 10° 21:16:26 10° 78° (ENE) 3,905 9.4 -9.3°
Sets 21:19:38 0° 77° (ENE) 4,910 9.9 -9.7°
